Location: Catenanuova
(37.5690°N, 14.6870°E)
Time: 19:02:36
(UTC+02:00)

ISS - Pass Details

Date: 13 March 2024
Orbit: 412 x 418 km, 51.6° (Epoch: 21 April)

Event Time Altitude Azimuth Distance (km) Brightness Sun altitude
Rises 18:37:32 0° 201° (SSW) 2,348 0.3 -6.9°
Reaches altitude 10° 18:39:52 10° 186° (S) 1,493 -0.9 -7.3°
Maximum altitude 18:42:37 23° 131° (SE) 935 -2.4 -7.9°
Enters shadow 18:45:16 11° 78° (ENE) 1,475 -1.6 -8.4°
